This demonstration page uses our WeatherBlox Daily Observations layout. Learn more.

Left ArrowRight Arrow

39.08367, -84.50855

Hourly Observations for January 31, 2018

Temp ( °F °C ) Dew Point ( °F °C ) Humidity (%) Winds ( mph kmh ) Pressure ( in mb ) Visibility ( mi km ) Precip ( " mm )
12:53 am 00:53 Clear 27 -2.8 17 -8.3 66 66 SSW 6 9 30.3 1026 10 16.0934 0 0
1:53 am 01:53 Clear 27 -2.8 16 -8.9 63 63 SSW 6 9 30.3 1026 10 16.0934 0 0
3:53 am 03:53 Mostly Clear 28 -2.2 17 -8.3 63 63 S 7 11 30.27 1025 10 16.0934 0 0
4:53 am 04:53 Clear 28 -2.2 17 -8.3 63 63 S 8 13 30.24 1024 10 16.0934 0 0
5:53 am 05:53 Clear 28 -2.2 17 -8.3 63 63 S 7 11 30.21 1023 10 16.0934 0 0
6:53 am 06:53 Clear 29 -1.7 17 -8.3 61 61 S 9 15 30.19 1022 10 16.0934 0 0
7:53 am 07:53 Sunny 30 -1.1 18 -7.8 61 61 S 10 17 30.15 1021 10 16.0934 0 0
8:53 am 08:53 Sunny 31 -0.6 18 -7.8 59 59 S 13 20 30.11 1020 10 16.0934 0 0
9:53 am 09:53 Sunny 34 1.1 19 -7.2 54 54 S 12 19 30.09 1019 10 16.0934 0 0
10:53 am 10:53 Sunny 41 5 19 -7.2 41 41 SSW 20 31 30.04 1017 10 16.0934 0 0
11:53 am 11:53 Sunny 44 6.7 19 -7.2 37 37 SSW 21 33 29.98 1015 10 16.0934 0 0
12:53 pm 12:53 Sunny 49 9.4 22 -5.6 35 35 SSW 16 26 29.93 1014 10 16.0934 0 0
1:53 pm 13:53 Sunny 49 9.4 22 -5.6 35 35 SSW 21 33 29.88 1012 10 16.0934 0 0
2:53 pm 14:53 Sunny 53 11.7 23 -5 31 31 SW 21 33 29.85 1011 10 16.0934 0 0
3:53 pm 15:53 Sunny 54 12.2 25 -3.9 33 33 SW 20 31 29.83 1010 10 16.0934 0 0
4:53 pm 16:53 Sunny 54 12.2 25 -3.9 33 33 SW 16 26 29.85 1011 10 16.0934 0 0
5:53 pm 17:53 Sunny 51 10.6 26 -3.3 38 38 SSW 10 17 29.85 1011 10 16.0934 0 0
6:53 pm 18:53 Clear 46 7.8 26 -3.3 46 46 SSW 10 17 29.87 1011 10 16.0934 0 0
7:53 pm 19:53 Clear 44 6.7 27 -2.8 51 51 SSW 12 19 29.87 1012 10 16.0934 0 0
8:53 pm 20:53 Clear 44 6.7 27 -2.8 51 51 SSW 13 20 29.88 1012 10 16.0934 0 0
9:53 pm 21:53 Clear 45 7.2 27 -2.8 49 49 SSW 13 20 29.89 1012 10 16.0934 0 0
10:53 pm 22:53 Clear 41 5 27 -2.8 57 57 SW 8 13 29.91 1013 10 16.0934 0 0
11:53 pm 23:53 Clear 45 7.2 28 -2.2 52 52 SSW 10 17 29.91 1013 10 16.0934 0 0

Powered by AerisWeather